Vorticity
12 11 10 11 10 8 8 9 8 8 13 15 12 19 7 10 9 25 -2 7 14 7 6 3 5 6 12 7 4 11 7 6 11 5 5 5 6 6 6 3 3 4 5 5 5 5 3 5 4 7 3 4 8 6
10 9 9 10 10 9 8 8 9 10 9 12 15 14 17 10 5 20 25 -1 10 10 5 6 3 3 11 8 6 9 8 6 9 6 6 9 9 9 8 6 4 8 6 6 6 5 4 4 5 5 10 9 3 11
10 9 9 10 10 9 8 7 8 9 13 10 11 14 20 10 9 8 39 1 5 12 9 5 6 6 7 13 7 9 7 9 10 4 4 7 8 5 6 4 5 6 6 6 5 4 4 7 10 10 7 12 12 12
9 9 10 10 9 8 8 7 8 9 10 15 10 14 14 12 14 5 16 28 -6 12 8 8 7 5 3 8 9 6 7 8 4 0 5 9 9 6 8 8 11 9 9 7 6 6 6 8 10 12 13 16 12 14
8 9 10 9 7 6 6 6 5 8 10 12 16 9 16 18 12 8 5 33 5 7 9 7 6 7 5 7 9 6 6 5 8 0 4 3 3 5 2 6 11 10 8 9 11 11 9 9 13 11 13 12 15 26
8 9 10 7 7 7 7 6 6 7 10 11 16 14 13 14 12 12 7 4 35 -7 8 8 7 8 6 7 10 6 6 7 9 2 3 2 4 4 2 7 9 14 11 9 11 8 10 11 10 14 15 23 29 8
10 11 11 8 6 6 7 8 8 6 9 8 15 17 8 14 14 15 6 8 43 -6 12 9 7 11 7 6 9 7 6 7 7 8 5 3 4 4 2 9 12 10 6 9 9 8 10 14 15 13 24 12 27 9
19 15 11 7 8 10 13 14 13 11 12 8 15 17 12 13 13 15 9 6 22 -7 6 14 10 7 7 8 8 7 6 7 3 5 5 3 4 1 10 12 10 4 8 8 6 12 12 9 14 25 41 -1 17 14
29 25 19 16 15 14 12 14 15 14 12 11 9 19 15 12 12 15 11 10 6 16 -3 10 9 6 6 10 7 6 6 7 4 4 8 10 9 11 12 8 5 5 6 9 10 11 11 19 27 17 11 28 10 16
23 25 25 22 20 18 19 20 23 25 15 12 7 18 16 12 11 13 14 13 4 23 2 4 12 3 6 7 8 7 6 7 5 3 6 10 9 14 10 4 4 4 7 8 8 10 20 26 30 21 20 24 7 13
16 23 26 27 26 20 17 19 21 25 22 10 7 14 16 12 11 11 11 11 4 19 12 -1 12 5 12 8 8 7 7 6 4 3 10 13 11 11 4 2 4 6 5 4 8 16 30 47 25 16 14 16 5 3
19 23 23 18 19 23 27 20 26 24 23 15 11 14 18 13 12 12 11 11 7 7 24 -10 11 8 10 11 7 7 5 6 5 6 15 9 14 5 -2 3 6 5 5 7 10 32 47 21 15 8 5 6 8 12
14 17 14 21 15 13 7 20 17 18 22 21 15 14 17 19 15 12 13 10 8 2 26 1 12 8 7 10 7 5 5 7 6 9 19 14 10 1 -0 6 6 5 4 5 22 32 48 9 4 14 7 4 5 -1
11 23 21 9 8 15 4 19 11 16 20 15 18 21 17 17 14 8 9 8 4 16 1 8 9 8 10 11 8 6 5 7 5 20 14 11 4 1 5 8 6 5 6 11 34 40 24 8 8 6 6 2 4 6
18 12 2 24 8 11 6 18 8 14 16 16 18 26 19 14 8 9 8 9 10 6 7 3 10 6 17 10 8 5 6 11 15 16 9 11 -0 4 6 8 7 7 5 27 32 30 25 3 6 3 7 5 9 4
5 7 14 5 -0 16 18 17 8 12 10 18 24 22 18 11 10 7 7 8 11 8 11 7 15 10 10 10 8 6 11 6 13 16 8 2 5 5 11 7 6 7 9 23 18 29 21 6 9 6 4 5 5 7
6 7 14 16 15 10 8 13 9 15 21 24 20 21 13 14 8 8 6 7 10 10 17 5 10 9 10 10 8 13 0 9 24 9 10 3 5 10 9 6 5 7 13 17 15 22 25 9 5 7 8 6 1 4
12 9 16 7 -0 -2 1 9 22 20 22 25 15 16 9 23 5 10 6 11 7 13 5 11 12 10 9 11 2 0 10 20 14 15 2 3 7 13 7 5 6 9 12 13 13 15 21 12 5 3 1 3 8 8
13 8 5 8 2 3 2 7 20 16 25 25 16 24 -27 41 13 15 4 9 6 19 -2 10 17 10 13 5 5 8 15 16 11 5 3 5 10 12 8 2 3 9 10 10 11 12 15 17 14 2 1 6 6 6
8 16 8 -1 -1 3 8 20 18 21 28 27 22 18 -17 37 17 9 -1 14 11 17 12 7 11 15 7 1 11 12 15 11 5 4 3 5 13 10 8 4 3 4 6 5 3 13 11 16 17 9 -1 5 4 6
12 5 7 6 9 17 22 22 19 27 27 25 22 -10 -6 44 17 8 3 13 16 13 5 15 9 7 5 6 11 14 13 7 7 4 6 10 14 11 9 2 2 4 4 7 8 7 12 15 13 11 6 4 4 4
4 4 7 11 17 19 24 26 19 28 22 17 45 -30 22 22 11 30 5 18 5 19 5 15 3 5 6 9 12 15 9 9 6 5 4 5 8 15 8 5 3 1 4 5 8 10 10 11 16 17 4 7 8 4
6 4 6 18 21 29 36 11 35 21 20 -73 57 51 -16 -9 -11 15 14 18 7 4 27 5 7 6 8 9 12 12 7 7 5 1 3 11 4 8 6 6 5 3 2 3 6 7 12 13 13 12 11 14 12 6
8 10 17 18 35 41 30 37 10 28 -10 -22 -10 50 27 -5 8 8 13 13 4 13 17 5 9 10 8 9 13 7 6 7 1 1 9 20 15 15 7 5 7 4 3 5 6 8 8 13 13 12 12 11 8 7
12 22 22 30 47 17 -10 -6 49 28 4 20 -9 23 34 12 9 8 16 20 -0 15 9 12 11 8 10 12 10 8 9 4 1 3 9 12 11 9 9 6 5 4 3 6 10 9 8 7 10 12 14 12 9 6
21 18 39 42 14 33 -42 6 7 15 53 2 22 -6 11 20 6 10 29 3 15 8 13 7 10 11 7 10 10 8 7 4 3 7 8 11 10 12 12 9 9 10 8 6 7 8 11 11 10 8 10 14 12 8
42 34 19 15 4 41 -27 -14 20 1 16 12 22 22 15 13 11 22 12 12 6 8 9 16 8 11 12 11 10 7 6 4 4 8 10 10 8 7 10 8 6 4 4 4 4 8 8 11 11 10 8 7 11 12
25 12 -0 33 23 3 24 2 1 7 14 23 -1 15 9 15 18 3 9 6 16 10 10 13 8 10 10 9 7 6 5 4 6 9 10 9 6 7 10 12 13 11 6 4 5 5 6 7 8 10 11 12 11 13
-1 21 27 22 8 -7 26 16 -16 20 18 19 22 5 13 11 14 3 16 18 21 2 14 13 9 8 9 9 7 6 4 4 5 9 14 12 10 12 15 16 13 9 6 5 5 5 6 7 7 8 9 14 15 16
35 38 45 -8 -19 -10 52 21 -10 -3 33 16 26 14 3 9 -7 20 12 29 6 4 15 12 11 9 11 12 9 6 5 7 11 10 8 6 10 5 7 9 9 6 6 6 7 8 9 9 9 9 9 9 10 12
-10 22 47 2 -25 1 39 31 8 -2 -1 3 17 6 9 1 10 28 16 14 -2 6 18 16 10 8 11 11 9 7 9 8 13 9 5 6 6 9 12 13 14 14 11 12 10 10 10 11 10 9 8 9 8 9
-3 6 34 10 -15 12 11 36 29 12 -12 -6 5 17 5 -2 23 22 23 3 -3 6 16 16 13 9 11 10 6 7 8 9 11 8 5 3 8 10 7 6 7 7 8 10 9 8 10 9 8 7 6 6 6 7
-4 -20 43 29 13 10 17 6 12 18 26 25 25 18 -0 11 27 21 19 2 0 7 14 15 13 10 7 6 9 8 10 14 10 8 10 6 4 7 10 11 12 12 12 11 9 10 9 7 6 4 6 10 11 10
Height
5523 5528 5534 5538 5542 5547 5552 5557 5562 5567 5572 5577 5583 5589 5596 5602 5608 5617 5627 5635 5646 5655 5663 5670 5681 5688 5698 5701 5705 5711 5715 5719 5722 5725 5727 5728 5730 5730 5730 5725 5724 5723 5721 5719 5716 5712 5710 5706 5703 5699 5695 5691 5687 5680
5515 5520 5526 5531 5536 5541 5546 5552 5557 5562 5568 5574 5580 5586 5592 5600 5606 5613 5623 5631 5640 5650 5658 5667 5677 5686 5694 5700 5704 5707 5712 5715 5719 5722 5725 5727 5728 5728 5726 5723 5723 5723 5720 5718 5716 5712 5707 5704 5700 5695 5692 5688 5681 5675
5507 5512 5518 5524 5529 5534 5540 5546 5552 5558 5564 5570 5576 5582 5589 5596 5603 5609 5618 5629 5636 5645 5655 5664 5673 5682 5689 5695 5700 5705 5710 5714 5717 5720 5723 5725 5726 5725 5723 5722 5721 5721 5718 5715 5713 5709 5704 5701 5696 5692 5686 5682 5675 5670
5497 5503 5509 5515 5521 5527 5532 5539 5546 5552 5558 5565 5571 5578 5585 5593 5600 5607 5613 5624 5632 5641 5651 5661 5670 5678 5684 5690 5696 5701 5705 5709 5713 5717 5721 5723 5722 5722 5721 5721 5720 5719 5716 5713 5709 5705 5700 5697 5691 5686 5680 5676 5670 5664
5486 5492 5499 5506 5512 5519 5525 5531 5539 5547 5552 5559 5566 5573 5581 5588 5596 5604 5611 5617 5628 5638 5647 5657 5666 5674 5681 5686 5692 5697 5702 5707 5711 5715 5719 5720 5720 5720 5720 5719 5718 5717 5713 5711 5707 5703 5697 5691 5686 5681 5677 5671 5665 5660
5473 5480 5487 5495 5502 5509 5516 5523 5531 5540 5547 5553 5560 5568 5576 5583 5592 5600 5608 5616 5625 5633 5644 5652 5661 5669 5677 5684 5690 5694 5699 5705 5710 5714 5716 5717 5718 5719 5719 5718 5716 5713 5711 5709 5705 5699 5693 5688 5682 5677 5673 5668 5663 5659
5458 5466 5474 5482 5490 5498 5505 5513 5521 5531 5539 5546 5554 5563 5571 5579 5588 5597 5606 5613 5621 5630 5639 5648 5657 5666 5674 5679 5686 5693 5698 5703 5708 5710 5713 5715 5716 5716 5717 5717 5714 5712 5710 5706 5701 5696 5691 5685 5680 5675 5671 5667 5663 5660
5443 5452 5460 5469 5478 5486 5494 5501 5510 5520 5530 5538 5547 5556 5565 5575 5584 5591 5600 5608 5616 5626 5634 5645 5653 5663 5670 5677 5684 5690 5696 5701 5704 5707 5710 5712 5714 5715 5716 5715 5713 5710 5708 5704 5699 5694 5688 5684 5679 5674 5670 5668 5665 5662
5430 5438 5446 5455 5464 5473 5481 5489 5498 5508 5519 5530 5540 5550 5560 5570 5578 5587 5597 5605 5613 5623 5630 5640 5651 5660 5669 5674 5680 5687 5693 5698 5702 5705 5708 5710 5712 5713 5714 5713 5712 5710 5706 5702 5697 5692 5687 5682 5678 5675 5673 5671 5669 5665
5421 5427 5435 5444 5453 5461 5469 5478 5486 5496 5509 5522 5534 5543 5554 5564 5574 5582 5593 5601 5608 5616 5627 5638 5648 5657 5665 5672 5679 5687 5692 5695 5699 5703 5706 5708 5710 5711 5712 5712 5711 5709 5705 5701 5696 5691 5686 5682 5678 5677 5676 5675 5673 5671
5414 5420 5426 5434 5443 5451 5460 5469 5478 5488 5500 5514 5526 5537 5548 5558 5567 5577 5586 5595 5604 5613 5624 5636 5646 5656 5663 5671 5677 5683 5688 5693 5696 5701 5703 5706 5708 5710 5711 5711 5711 5708 5705 5701 5695 5690 5685 5681 5681 5682 5682 5680 5679 5677
5409 5415 5422 5429 5438 5446 5455 5463 5472 5482 5493 5505 5517 5529 5540 5550 5560 5570 5580 5591 5600 5611 5624 5635 5645 5653 5662 5667 5672 5680 5684 5690 5694 5698 5701 5704 5707 5709 5710 5711 5711 5708 5704 5700 5694 5689 5686 5686 5687 5688 5687 5686 5685 5683
5406 5413 5421 5428 5436 5444 5453 5461 5469 5477 5487 5497 5509 5521 5531 5541 5551 5565 5577 5589 5600 5611 5624 5634 5641 5649 5655 5662 5670 5676 5682 5686 5692 5694 5699 5703 5705 5708 5709 5711 5710 5708 5705 5700 5695 5691 5690 5692 5693 5692 5693 5692 5691 5689
5405 5413 5421 5429 5436 5444 5451 5459 5467 5475 5483 5492 5502 5513 5522 5535 5552 5567 5578 5587 5599 5612 5623 5631 5638 5646 5653 5662 5667 5673 5679 5684 5688 5693 5698 5701 5704 5707 5709 5711 5711 5709 5706 5701 5696 5695 5695 5696 5698 5698 5698 5698 5697 5694
5405 5413 5421 5429 5436 5443 5450 5456 5463 5471 5478 5486 5495 5506 5524 5536 5548 5560 5571 5582 5595 5605 5615 5626 5635 5644 5652 5658 5664 5670 5677 5681 5688 5694 5696 5700 5702 5706 5709 5710 5711 5709 5706 5702 5699 5698 5698 5700 5701 5702 5702 5702 5701 5700
5404 5411 5418 5427 5434 5440 5447 5453 5460 5467 5474 5483 5495 5509 5520 5532 5545 5558 5570 5583 5593 5604 5610 5622 5631 5638 5644 5650 5659 5667 5675 5682 5688 5690 5694 5697 5701 5705 5708 5710 5710 5709 5707 5704 5702 5700 5702 5703 5703 5705 5705 5705 5705 5703
5404 5412 5418 5425 5432 5438 5446 5452 5458 5465 5471 5482 5495 5507 5516 5529 5540 5554 5568 5577 5587 5597 5608 5618 5625 5633 5641 5647 5657 5665 5675 5681 5683 5688 5693 5696 5700 5704 5707 5710 5710 5710 5709 5706 5705 5704 5704 5705 5706 5706 5707 5708 5708 5707
5403 5410 5417 5424 5429 5435 5443 5450 5456 5464 5473 5483 5493 5503 5514 5524 5537 5552 5564 5575 5586 5598 5605 5613 5622 5629 5637 5650 5660 5668 5674 5677 5681 5687 5691 5695 5699 5702 5706 5709 5710 5711 5709 5708 5707 5706 5706 5707 5708 5708 5708 5709 5709 5709
5402 5409 5416 5422 5429 5437 5444 5449 5454 5463 5472 5478 5489 5501 5513 5522 5537 5550 5562 5573 5583 5592 5597 5607 5616 5627 5640 5649 5656 5664 5668 5673 5678 5683 5689 5693 5697 5702 5705 5708 5709 5711 5710 5709 5709 5708 5707 5707 5709 5709 5710 5711 5711 5712
5402 5408 5415 5421 5427 5433 5438 5443 5451 5459 5468 5477 5487 5502 5516 5524 5537 5548 5559 5570 5579 5587 5594 5602 5616 5628 5636 5644 5652 5658 5663 5670 5676 5681 5687 5691 5695 5699 5703 5706 5708 5710 5711 5710 5709 5709 5708 5708 5708 5709 5710 5711 5712 5713
5399 5406 5412 5417 5423 5429 5435 5442 5451 5458 5466 5476 5488 5505 5515 5524 5536 5548 5559 5568 5574 5581 5595 5606 5617 5626 5635 5642 5648 5654 5661 5668 5673 5679 5684 5690 5695 5698 5701 5705 5707 5709 5710 5710 5710 5710 5709 5709 5711 5712 5712 5713 5713 5713
5398 5404 5411 5416 5420 5425 5432 5441 5450 5458 5469 5482 5493 5507 5513 5525 5536 5548 5557 5561 5571 5584 5598 5607 5617 5624 5631 5639 5645 5650 5657 5665 5671 5677 5680 5683 5691 5696 5700 5703 5706 5707 5709 5710 5710 5710 5711 5711 5710 5711 5712 5713 5714 5714
5398 5403 5408 5412 5416 5422 5433 5439 5449 5461 5474 5485 5496 5506 5514 5524 5532 5542 5550 5561 5573 5584 5597 5605 5614 5621 5628 5635 5641 5649 5656 5663 5669 5675 5680 5684 5686 5691 5695 5700 5703 5706 5708 5709 5709 5709 5710 5711 5710 5711 5711 5712 5713 5714
5395 5400 5404 5408 5413 5423 5432 5443 5455 5467 5474 5485 5494 5504 5515 5524 5533 5539 5550 5562 5573 5583 5595 5603 5610 5620 5626 5633 5641 5648 5655 5661 5667 5672 5677 5682 5686 5690 5694 5697 5700 5703 5706 5707 5708 5708 5709 5709 5709 5709 5710 5711 5711 5712
5392 5396 5399 5405 5413 5423 5433 5447 5456 5467 5476 5486 5496 5503 5513 5523 5530 5540 5551 5563 5572 5581 5593 5600 5609 5617 5624 5631 5639 5646 5653 5659 5665 5671 5675 5679 5682 5685 5690 5694 5698 5701 5703 5705 5706 5707 5707 5707 5707 5708 5708 5709 5709 5709
5387 5393 5401 5409 5418 5426 5438 5447 5460 5470 5482 5488 5499 5505 5513 5521 5530 5541 5554 5565 5573 5582 5592 5601 5609 5615 5622 5630 5638 5645 5652 5658 5664 5668 5673 5677 5682 5685 5688 5692 5696 5699 5700 5702 5703 5704 5705 5705 5705 5705 5706 5706 5706 5706
5383 5394 5403 5410 5419 5432 5443 5452 5462 5468 5479 5490 5497 5505 5513 5522 5533 5547 5557 5565 5573 5583 5591 5598 5606 5614 5620 5628 5635 5642 5649 5655 5660 5665 5669 5674 5677 5680 5684 5687 5690 5694 5696 5698 5699 5701 5702 5702 5703 5703 5702 5702 5703 5703
5388 5397 5405 5414 5424 5434 5444 5453 5460 5470 5480 5488 5496 5504 5514 5526 5539 5549 5556 5563 5570 5579 5587 5595 5603 5610 5617 5625 5632 5639 5645 5651 5656 5660 5664 5668 5672 5677 5680 5683 5687 5690 5692 5694 5695 5696 5698 5698 5699 5699 5699 5698 5698 5697
5389 5398 5403 5416 5427 5436 5446 5453 5461 5473 5482 5488 5496 5507 5520 5530 5539 5546 5554 5561 5569 5578 5586 5594 5601 5608 5615 5622 5629 5636 5643 5649 5654 5660 5665 5670 5673 5677 5679 5681 5683 5685 5687 5689 5691 5692 5693 5694 5694 5694 5694 5694 5694 5693
5391 5400 5410 5418 5427 5437 5449 5456 5466 5470 5480 5490 5498 5508 5517 5525 5534 5542 5551 5559 5568 5577 5584 5591 5599 5608 5616 5623 5630 5637 5643 5648 5652 5656 5660 5664 5667 5669 5672 5675 5677 5679 5681 5684 5686 5688 5688 5689 5689 5689 5689 5689 5689 5688
5398 5406 5412 5419 5428 5436 5443 5455 5464 5471 5480 5489 5498 5506 5514 5522 5531 5540 5547 5556 5565 5574 5582 5590 5598 5605 5613 5620 5627 5634 5639 5644 5648 5652 5655 5659 5662 5665 5668 5671 5673 5675 5677 5680 5682 5683 5684 5684 5684 5684 5685 5684 5684 5682
5401 5408 5418 5427 5435 5442 5449 5457 5465 5474 5484 5492 5499 5505 5512 5520 5529 5536 5545 5554 5563 5573 5581 5589 5596 5604 5611 5616 5622 5627 5630 5636 5642 5647 5651 5655 5659 5661 5664 5666 5668 5670 5672 5674 5676 5677 5678 5679 5679 5679 5679 5679 5678 5677
5409 5411 5417 5429 5436 5443 5452 5461 5469 5477 5486 5492 5498 5504 5512 5520 5528 5537 5545 5554 5563 5570 5578 5585 5592 5599 5605 5611 5617 5622 5628 5633 5637 5641 5645 5650 5653 5657 5660 5662 5664 5666 5667 5669 5671 5672 5673 5674 5674 5674 5674 5673 5672 5670